Home   Weather   Oberwart   Past weeks

Flag for Austria Past Weather in Oberwart, Burgenland, Austria — Yesterday and Last 2 Weeks

Now
76 °F

Mild.


Feels Like: 78 °F
Forecast: 61 / 70 °F
Wind: 6 mph from Northwest

Location: Eisenstadt

Current Time: Jul 23, 2017 at 11:04:31 am

Latest Report: Jul 23, 2017 at 10:00 am


Visibility: N/A

Pressure: 29.94 "Hg

Humidity: 65%

Dew Point: 63 °F

Location of OberwartLocation

Past Weather in Oberwart — Graph

°F

Oberwart Temperature Yesterday

Maximum temperature yesterday: 88 °F (at 2:00 pm)
Minimum temperature yesterday: 66 °F (at 4:00 am)
Average temperature yesterday: 75 °F

High & Low Weather Summary for the Past Weeks

 TemperatureHumidityPressure
High90 °F (Jul 8, 2:00 pm)94% (Jul 10, 1:00 am)30.22 "Hg (Jul 10, 1:00 am)
Low53 °F (Jul 14, 6:00 am)27% (Jul 8, 2:00 pm)29.71 "Hg (Jul 10, 6:00 pm)
Average72 °F61%29.97 "Hg
* Reported Jul 8 9:00 am — Jul 23 9:00 am, Oberwart. Weather by CustomWeather, © 2017

Note: Actual official high and low records may vary slightly from our data, if they occured in-between our weather recording intervals... More about our weather records

Advertising

Oberwart Weather History for the Previous 24 Hours

Scroll right to see more
 ConditionsComfort  
Time TempWeatherWind HumidityBarometerVisibility
9:00 am
Sun, Jul 23
75 °FMild.1 mph73%29.92 "HgN/A
8:00 am75 °FOvercast.No wind72%29.93 "Hg12 mi
7:00 am70 °FOvercast.1 mph82%29.92 "Hg12 mi
6:00 am69 °FOvercast.1 mph83%29.92 "Hg9 mi
5:00 am69 °FOvercast.2 mph85%29.92 "Hg9 mi
4:00 am69 °FOvercast.2 mph84%29.92 "Hg9 mi
3:00 am71 °FMild.1 mph77%29.93 "HgN/A
2:00 am72 °FOvercast.1 mph74%29.93 "Hg9 mi
1:00 am72 °FMild.No wind74%29.95 "HgN/A
12:00 am75 °FMild.1 mph63%29.93 "HgN/A
11:00 pm
Sat, Jul 22
74 °FClear.2 mph65%29.93 "Hg9 mi
10:00 pm75 °FMild.2 mph65%29.93 "HgN/A
9:00 pm77 °FWarm.5 mph56%29.91 "HgN/A
8:00 pm79 °FPartly sunny.5 mph52%29.90 "Hg12 mi
7:00 pm80 °FOvercast.2 mph48%29.89 "Hg11 mi
6:00 pm79 °FWarm.6 mph55%29.89 "HgN/A
5:00 pm78 °FOvercast.6 mph60%29.87 "Hg11 mi
4:00 pm82 °FWarm.3 mph56%29.89 "HgN/A
3:00 pm85 °FWarm.5 mph50%29.87 "HgN/A
2:00 pm88 °FScattered clouds.5 mph46%29.87 "Hg12 mi
1:00 pm86 °FWarm.2 mph47%29.89 "HgN/A
12:00 pm83 °FWarm.2 mph51%29.90 "HgN/A
11:00 am80 °FScattered clouds.1 mph57%29.91 "Hg12 mi
Weather by CustomWeather, © 2017

See weather overviewHow to use our weather pages